QPF
0.02 0.03 0.03 0.04 0.03 0.05 0.06 0.08 0.07 0.04 0.03 0.03 0.05 0.05 0.05 0.06 0.07 0.06 0.06 0.06 0.05 0.05 0.05 0.05 0.04 0.05 0.05 0.05 0.08 0.07 0.05 0.06 0.07 0.04 0.04 0.04 0.04 0.03 0.04 0.06 0.06 0.04 0.03
0.02 0.03 0.02 0.03 0.03 0.03 0.05 0.07 0.06 0.04 0.03 0.04 0.05 0.06 0.06 0.07 0.06 0.06 0.06 0.06 0.05 0.05 0.05 0.04 0.03 0.05 0.06 0.06 0.06 0.07 0.06 0.06 0.06 0.05 0.03 0.04 0.04 0.04 0.04 0.05 0.05 0.05 0.03
0.02 0.03 0.02 0.02 0.02 0.03 0.04 0.05 0.05 0.05 0.04 0.05 0.06 0.06 0.06 0.06 0.06 0.06 0.06 0.05 0.06 0.06 0.05 0.05 0.05 0.05 0.05 0.06 0.07 0.07 0.07 0.07 0.06 0.05 0.05 0.05 0.06 0.06 0.05 0.05 0.06 0.07 0.05
0.02 0.03 0.03 0.02 0.02 0.02 0.02 0.04 0.05 0.05 0.04 0.05 0.05 0.04 0.04 0.05 0.06 0.06 0.05 0.05 0.06 0.06 0.06 0.06 0.06 0.06 0.06 0.06 0.06 0.06 0.06 0.06 0.06 0.06 0.04 0.03 0.04 0.06 0.06 0.06 0.07 0.07 0.06
0.02 0.02 0.04 0.03 0.02 0.02 0.02 0.03 0.04 0.05 0.05 0.04 0.04 0.03 0.03 0.04 0.06 0.06 0.06 0.05 0.06 0.07 0.06 0.06 0.06 0.06 0.07 0.06 0.05 0.04 0.05 0.05 0.04 0.04 0.05 0.06 0.05 0.06 0.06 0.05 0.05 0.05 0.06
0.02 0.01 0.02 0.03 0.03 0.02 0.01 0.02 0.03 0.04 0.04 0.04 0.04 0.03 0.03 0.04 0.06 0.06 0.08 0.08 0.07 0.07 0.06 0.06 0.07 0.09 0.10 0.08 0.05 0.04 0.04 0.03 0.04 0.04 0.05 0.07 0.07 0.05 0.05 0.06 0.05 0.05 0.07
0.02 0.02 0.02 0.03 0.04 0.04 0.02 0.02 0.03 0.03 0.04 0.04 0.05 0.05 0.05 0.05 0.06 0.08 0.09 0.09 0.07 0.07 0.08 0.09 0.11 0.11 0.10 0.08 0.06 0.05 0.05 0.03 0.03 0.02 0.04 0.06 0.07 0.06 0.06 0.07 0.05 0.06 0.06
0.01 0.02 0.03 0.03 0.04 0.04 0.04 0.03 0.03 0.03 0.03 0.05 0.06 0.08 0.09 0.08 0.07 0.09 0.11 0.13 0.11 0.11 0.12 0.16 0.15 0.10 0.07 0.07 0.06 0.05 0.07 0.04 0.03 0.03 0.04 0.05 0.06 0.07 0.09 0.09 0.08 0.07 0.06
0.01 0.02 0.03 0.03 0.03 0.02 0.03 0.03 0.04 0.04 0.04 0.05 0.08 0.11 0.13 0.16 0.18 0.17 0.16 0.17 0.22 0.26 0.23 0.22 0.16 0.12 0.10 0.08 0.06 0.06 0.07 0.06 0.05 0.04 0.03 0.04 0.04 0.05 0.06 0.07 0.10 0.11 0.09
0.01 0.02 0.03 0.03 0.03 0.02 0.04 0.03 0.03 0.04 0.04 0.04 0.06 0.11 0.14 0.15 0.15 0.14 0.13 0.19 0.32 0.38 0.33 0.23 0.16 0.13 0.12 0.09 0.08 0.08 0.08 0.08 0.07 0.06 0.05 0.03 0.04 0.05 0.07 0.07 0.10 0.13 0.13
0.01 0.02 0.03 0.03 0.03 0.02 0.02 0.02 0.03 0.03 0.03 0.03 0.04 0.04 0.06 0.08 0.09 0.10 0.13 0.19 0.26 0.29 0.29 0.27 0.21 0.18 0.14 0.11 0.10 0.08 0.09 0.08 0.06 0.07 0.08 0.05 0.06 0.08 0.10 0.12 0.10 0.09 0.09
0.02 0.01 0.03 0.02 0.03 0.03 0.02 0.02 0.03 0.04 0.04 0.03 0.03 0.03 0.05 0.07 0.08 0.10 0.13 0.13 0.13 0.17 0.23 0.28 0.23 0.21 0.18 0.17 0.14 0.12 0.09 0.05 0.05 0.06 0.09 0.11 0.13 0.16 0.15 0.13 0.11 0.10 0.11
0.02 0.01 0.01 0.01 0.02 0.03 0.03 0.03 0.03 0.03 0.04 0.03 0.03 0.03 0.04 0.05 0.06 0.07 0.07 0.08 0.10 0.13 0.17 0.24 0.26 0.24 0.21 0.17 0.12 0.11 0.10 0.07 0.06 0.04 0.04 0.05 0.07 0.09 0.11 0.11 0.09 0.09 0.09
0.01 0.01 0.01 0.01 0.01 0.02 0.02 0.02 0.02 0.02 0.02 0.02 0.02 0.03 0.04 0.06 0.06 0.06 0.06 0.07 0.08 0.10 0.13 0.16 0.22 0.27 0.22 0.14 0.13 0.13 0.13 0.11 0.08 0.08 0.05 0.04 0.05 0.05 0.07 0.08 0.08 0.08 0.07
0.03 0.01 0.00 0.00 0.01 0.02 0.02 0.03 0.02 0.02 0.01 0.01 0.02 0.03 0.05 0.05 0.05 0.05 0.06 0.09 0.09 0.09 0.10 0.13 0.17 0.21 0.23 0.16 0.11 0.10 0.11 0.10 0.08 0.08 0.08 0.05 0.05 0.05 0.06 0.07 0.07 0.07 0.06
0.09 0.03 0.01 0.01 0.01 0.02 0.03 0.03 0.03 0.02 0.01 0.01 0.02 0.03 0.05 0.04 0.04 0.05 0.05 0.06 0.07 0.09 0.08 0.09 0.10 0.14 0.17 0.16 0.11 0.09 0.10 0.11 0.10 0.08 0.08 0.07 0.07 0.08 0.07 0.08 0.09 0.08 0.08
0.14 0.09 0.04 0.02 0.02 0.03 0.04 0.03 0.03 0.03 0.02 0.02 0.02 0.04 0.05 0.04 0.04 0.03 0.03 0.04 0.06 0.05 0.05 0.05 0.06 0.09 0.12 0.15 0.13 0.12 0.13 0.13 0.12 0.11 0.09 0.07 0.06 0.08 0.09 0.10 0.10 0.08 0.08
0.09 0.10 0.09 0.09 0.08 0.08 0.08 0.07 0.06 0.05 0.05 0.05 0.03 0.03 0.03 0.04 0.05 0.03 0.02 0.02 0.04 0.05 0.07 0.08 0.07 0.10 0.12 0.12 0.15 0.15 0.15 0.14 0.15 0.16 0.15 0.11 0.08 0.06 0.07 0.08 0.09 0.08 0.07
0.03 0.04 0.07 0.11 0.15 0.16 0.13 0.10 0.08 0.07 0.07 0.08 0.08 0.07 0.05 0.04 0.04 0.03 0.03 0.04 0.04 0.05 0.07 0.06 0.08 0.09 0.11 0.11 0.11 0.13 0.14 0.14 0.14 0.14 0.14 0.13 0.13 0.12 0.08 0.07 0.07 0.07 0.09
0.01 0.01 0.01 0.02 0.03 0.05 0.04 0.04 0.04 0.04 0.04 0.05 0.05 0.06 0.06 0.05 0.04 0.03 0.03 0.03 0.03 0.05 0.05 0.03 0.04 0.05 0.06 0.08 0.09 0.13 0.16 0.15 0.15 0.14 0.13 0.14 0.17 0.14 0.11 0.09 0.07 0.06 0.08
0.01 0.01 0.01 0.01 0.02 0.02 0.02 0.02 0.03 0.03 0.04 0.04 0.03 0.02 0.02 0.02 0.02 0.02 0.03 0.03 0.04 0.04 0.04 0.03 0.03 0.04 0.05 0.05 0.06 0.10 0.13 0.14 0.15 0.14 0.14 0.15 0.15 0.14 0.12 0.10 0.07 0.06 0.05
0.01 0.01 0.01 0.01 0.03 0.02 0.02 0.02 0.02 0.02 0.03 0.03 0.04 0.04 0.02 0.01 0.02 0.03 0.03 0.03 0.04 0.04 0.04 0.04 0.03 0.03 0.04 0.05 0.05 0.07 0.09 0.10 0.09 0.10 0.12 0.13 0.13 0.12 0.10 0.08 0.08 0.07 0.06
0.01 0.01 0.01 0.01 0.05 0.03 0.03 0.03 0.03 0.03 0.03 0.03 0.03 0.02 0.02 0.01 0.02 0.02 0.02 0.02 0.02 0.03 0.05 0.05 0.04 0.03 0.04 0.04 0.04 0.05 0.06 0.06 0.06 0.07 0.08 0.07 0.07 0.06 0.06 0.05 0.05 0.06 0.06
0.01 0.01 0.01 0.01 0.04 0.03 0.02 0.03 0.05 0.05 0.05 0.04 0.03 0.03 0.03 0.02 0.02 0.02 0.02 0.02 0.03 0.03 0.05 0.05 0.04 0.04 0.03 0.04 0.04 0.04 0.05 0.06 0.06 0.06 0.06 0.05 0.04 0.03 0.05 0.04 0.04 0.05 0.06
0.00 0.00 0.01 0.01 0.03 0.02 0.02 0.02 0.04 0.06 0.07 0.07 0.06 0.05 0.03 0.02 0.02 0.02 0.01 0.01 0.03 0.03 0.05 0.04 0.04 0.04 0.03 0.03 0.05 0.05 0.06 0.06 0.06 0.08 0.07 0.05 0.04 0.03 0.03 0.03 0.03 0.04 0.04
0.00 0.00 0.01 0.01 0.03 0.02 0.02 0.02 0.03 0.05 0.09 0.12 0.09 0.06 0.04 0.03 0.02 0.02 0.02 0.02 0.02 0.03 0.04 0.03 0.04 0.04 0.04 0.04 0.04 0.05 0.05 0.05 0.05 0.06 0.05 0.05 0.06 0.05 0.04 0.03 0.02 0.02 0.03
MSLP
1012.14 1011.96 1011.92 1012.01 1012.19 1012.42 1012.63 1012.78 1012.84 1012.82 1012.74 1012.66 1012.59 1012.58 1012.61 1012.69 1012.79 1012.88 1012.93 1012.94 1012.91 1012.87 1012.83 1012.82 1012.85 1012.93 1013.03 1013.15 1013.26 1013.34 1013.39 1013.42 1013.44 1013.48 1013.56 1013.69 1013.88 1014.10 1014.34 1014.57 1014.76 1014.92 1015.03
1012.10 1012.00 1012.04 1012.22 1012.48 1012.76 1013.00 1013.14 1013.19 1013.14 1013.04 1012.93 1012.86 1012.85 1012.90 1012.99 1013.10 1013.18 1013.22 1013.21 1013.16 1013.11 1013.08 1013.08 1013.13 1013.22 1013.33 1013.44 1013.51 1013.55 1013.55 1013.53 1013.52 1013.54 1013.63 1013.77 1013.98 1014.23 1014.48 1014.72 1014.92 1015.07 1015.19
1011.98 1011.96 1012.08 1012.34 1012.68 1013.01 1013.28 1013.45 1013.49 1013.44 1013.33 1013.22 1013.15 1013.15 1013.20 1013.29 1013.37 1013.43 1013.44 1013.41 1013.34 1013.28 1013.25 1013.26 1013.32 1013.42 1013.53 1013.61 1013.65 1013.64 1013.59 1013.53 1013.48 1013.50 1013.58 1013.75 1013.98 1014.26 1014.53 1014.79 1015.01 1015.18 1015.31
1011.83 1011.87 1012.07 1012.40 1012.80 1013.19 1013.49 1013.68 1013.74 1013.71 1013.61 1013.52 1013.46 1013.46 1013.51 1013.58 1013.65 1013.67 1013.65 1013.58 1013.49 1013.42 1013.39 1013.42 1013.49 1013.59 1013.68 1013.73 1013.73 1013.66 1013.55 1013.44 1013.37 1013.37 1013.47 1013.65 1013.91 1014.22 1014.52 1014.80 1015.05 1015.25 1015.41
1011.70 1011.81 1012.06 1012.45 1012.89 1013.31 1013.65 1013.86 1013.95 1013.93 1013.87 1013.80 1013.76 1013.77 1013.82 1013.88 1013.92 1013.91 1013.85 1013.76 1013.66 1013.59 1013.57 1013.60 1013.68 1013.78 1013.84 1013.85 1013.78 1013.65 1013.48 1013.32 1013.22 1013.21 1013.32 1013.53 1013.82 1014.15 1014.48 1014.79 1015.05 1015.28 1015.48
1011.69 1011.83 1012.13 1012.54 1013.00 1013.43 1013.77 1014.00 1014.10 1014.11 1014.08 1014.04 1014.03 1014.06 1014.11 1014.16 1014.18 1014.15 1014.07 1013.96 1013.86 1013.79 1013.79 1013.83 1013.92 1013.99 1014.02 1013.97 1013.84 1013.63 1013.40 1013.20 1013.07 1013.06 1013.18 1013.42 1013.74 1014.10 1014.45 1014.78 1015.05 1015.29 1015.51
1011.84 1012.01 1012.31 1012.72 1013.16 1013.57 1013.89 1014.11 1014.21 1014.24 1014.23 1014.23 1014.25 1014.30 1014.36 1014.41 1014.42 1014.37 1014.28 1014.17 1014.08 1014.02 1014.03 1014.09 1014.16 1014.21 1014.20 1014.09 1013.88 1013.61 1013.33 1013.08 1012.94 1012.94 1013.09 1013.36 1013.72 1014.10 1014.47 1014.80 1015.07 1015.30 1015.51
1012.17 1012.35 1012.64 1013.01 1013.40 1013.75 1014.03 1014.21 1014.30 1014.32 1014.33 1014.34 1014.39 1014.46 1014.54 1014.59 1014.60 1014.55 1014.46 1014.35 1014.27 1014.23 1014.25 1014.31 1014.37 1014.40 1014.33 1014.16 1013.90 1013.57 1013.24 1012.98 1012.84 1012.86 1013.05 1013.37 1013.76 1014.17 1014.55 1014.87 1015.11 1015.31 1015.48
1012.67 1012.84 1013.09 1013.40 1013.71 1013.99 1014.19 1014.30 1014.35 1014.35 1014.36 1014.39 1014.45 1014.54 1014.63 1014.69 1014.70 1014.66 1014.57 1014.47 1014.39 1014.36 1014.38 1014.44 1014.48 1014.47 1014.37 1014.15 1013.83 1013.47 1013.11 1012.85 1012.73 1012.80 1013.05 1013.42 1013.86 1014.30 1014.68 1014.98 1015.18 1015.32 1015.44
1013.26 1013.40 1013.61 1013.85 1014.07 1014.24 1014.35 1014.38 1014.37 1014.34 1014.33 1014.37 1014.44 1014.55 1014.65 1014.71 1014.72 1014.67 1014.58 1014.48 1014.40 1014.37 1014.39 1014.43 1014.45 1014.41 1014.27 1014.02 1013.67 1013.29 1012.94 1012.70 1012.62 1012.74 1013.05 1013.48 1013.97 1014.44 1014.83 1015.11 1015.27 1015.35 1015.40
1013.84 1013.96 1014.12 1014.28 1014.41 1014.48 1014.49 1014.45 1014.37 1014.30 1014.27 1014.30 1014.38 1014.49 1014.60 1014.67 1014.68 1014.62 1014.52 1014.41 1014.31 1014.26 1014.26 1014.27 1014.27 1014.21 1014.05 1013.78 1013.42 1013.05 1012.72 1012.51 1012.49 1012.67 1013.03 1013.52 1014.06 1014.56 1014.96 1015.23 1015.36 1015.38 1015.37
1014.31 1014.42 1014.53 1014.62 1014.67 1014.66 1014.59 1014.47 1014.34 1014.23 1014.19 1014.21 1014.29 1014.41 1014.52 1014.59 1014.59 1014.53 1014.41 1014.27 1014.15 1014.07 1014.03 1014.02 1013.99 1013.91 1013.74 1013.47 1013.13 1012.78 1012.49 1012.32 1012.34 1012.57 1012.99 1013.52 1014.10 1014.63 1015.05 1015.32 1015.43 1015.43 1015.37
1014.60 1014.69 1014.78 1014.83 1014.82 1014.75 1014.62 1014.46 1014.29 1014.16 1014.10 1014.12 1014.21 1014.33 1014.45 1014.52 1014.52 1014.44 1014.29 1014.13 1013.97 1013.85 1013.78 1013.73 1013.68 1013.59 1013.42 1013.17 1012.87 1012.55 1012.29 1012.17 1012.22 1012.48 1012.91 1013.47 1014.07 1014.63 1015.07 1015.36 1015.48 1015.48 1015.42
1014.66 1014.75 1014.83 1014.86 1014.83 1014.74 1014.58 1014.40 1014.22 1014.08 1014.02 1014.05 1014.15 1014.29 1014.41 1014.49 1014.48 1014.39 1014.23 1014.03 1013.83 1013.67 1013.56 1013.48 1013.42 1013.32 1013.17 1012.96 1012.69 1012.42 1012.19 1012.09 1012.15 1012.40 1012.83 1013.38 1013.97 1014.53 1015.00 1015.32 1015.48 1015.52 1015.48
1014.49 1014.59 1014.68 1014.72 1014.70 1014.62 1014.47 1014.29 1014.13 1014.01 1013.96 1014.01 1014.12 1014.27 1014.41 1014.50 1014.50 1014.40 1014.22 1014.01 1013.78 1013.59 1013.44 1013.34 1013.26 1013.18 1013.06 1012.88 1012.66 1012.42 1012.22 1012.12 1012.16 1012.38 1012.75 1013.25 1013.81 1014.36 1014.83 1015.19 1015.42 1015.52 1015.55
1014.13 1014.27 1014.39 1014.46 1014.47 1014.42 1014.31 1014.17 1014.03 1013.94 1013.92 1013.98 1014.11 1014.28 1014.43 1014.53 1014.54 1014.46 1014.29 1014.06 1013.82 1013.61 1013.44 1013.33 1013.25 1013.19 1013.10 1012.96 1012.78 1012.58 1012.39 1012.28 1012.27 1012.41 1012.70 1013.11 1013.60 1014.10 1014.58 1014.97 1015.27 1015.46 1015.57
1013.69 1013.86 1014.02 1014.14 1014.20 1014.20 1014.14 1014.04 1013.94 1013.88 1013.88 1013.96 1014.10 1014.27 1014.44 1014.55 1014.59 1014.53 1014.37 1014.16 1013.93 1013.72 1013.55 1013.44 1013.37 1013.33 1013.27 1013.17 1013.03 1012.86 1012.68 1012.53 1012.46 1012.50 1012.67 1012.97 1013.36 1013.80 1014.25 1014.67 1015.03 1015.31 1015.52
1013.24 1013.45 1013.65 1013.82 1013.94 1013.99 1013.99 1013.94 1013.87 1013.83 1013.84 1013.92 1014.05 1014.23 1014.39 1014.52 1014.58 1014.55 1014.44 1014.26 1014.06 1013.87 1013.72 1013.62 1013.57 1013.54 1013.52 1013.46 1013.36 1013.20 1013.02 1012.84 1012.69 1012.64 1012.68 1012.85 1013.12 1013.48 1013.88 1014.30 1014.71 1015.07 1015.38
1012.87 1013.11 1013.36 1013.57 1013.73 1013.84 1013.88 1013.87 1013.83 1013.80 1013.81 1013.87 1013.98 1014.13 1014.28 1014.42 1014.50 1014.51 1014.44 1014.32 1014.17 1014.02 1013.89 1013.81 1013.78 1013.78 1013.78 1013.75 1013.68 1013.54 1013.36 1013.15 1012.95 1012.79 1012.72 1012.75 1012.90 1013.16 1013.50 1013.90 1014.33 1014.75 1015.15
1012.61 1012.89 1013.15 1013.40 1013.60 1013.74 1013.82 1013.84 1013.83 1013.80 1013.78 1013.81 1013.87 1013.98 1014.11 1014.24 1014.33 1014.38 1014.37 1014.31 1014.22 1014.12 1014.04 1013.98 1013.97 1013.98 1014.00 1013.99 1013.94 1013.83 1013.65 1013.43 1013.18 1012.95 1012.78 1012.70 1012.74 1012.89 1013.15 1013.51 1013.93 1014.39 1014.84
1012.48 1012.76 1013.04 1013.30 1013.53 1013.70 1013.81 1013.86 1013.85 1013.82 1013.78 1013.75 1013.76 1013.81 1013.90 1014.00 1014.11 1014.19 1014.23 1014.24 1014.21 1014.17 1014.13 1014.10 1014.10 1014.11 1014.14 1014.14 1014.11 1014.02 1013.86 1013.64 1013.38 1013.12 1012.88 1012.72 1012.65 1012.70 1012.88 1013.17 1013.56 1014.02 1014.50
1012.41 1012.69 1012.97 1013.23 1013.47 1013.67 1013.81 1013.89 1013.90 1013.87 1013.80 1013.73 1013.68 1013.66 1013.69 1013.76 1013.86 1013.97 1014.06 1014.12 1014.16 1014.18 1014.17 1014.16 1014.17 1014.18 1014.19 1014.20 1014.17 1014.11 1013.98 1013.79 1013.56 1013.29 1013.03 1012.81 1012.67 1012.63 1012.72 1012.94 1013.27 1013.68 1014.16
1012.33 1012.60 1012.87 1013.13 1013.38 1013.61 1013.79 1013.90 1013.95 1013.93 1013.85 1013.74 1013.64 1013.56 1013.53 1013.56 1013.64 1013.75 1013.88 1013.99 1014.09 1014.15 1014.18 1014.18 1014.18 1014.17 1014.17 1014.17 1014.15 1014.11 1014.03 1013.90 1013.71 1013.48 1013.23 1013.00 1012.81 1012.70 1012.70 1012.83 1013.07 1013.42 1013.85
1012.17 1012.43 1012.68 1012.93 1013.20 1013.46 1013.69 1013.87 1013.96 1013.98 1013.91 1013.78 1013.64 1013.51 1013.42 1013.40 1013.46 1013.57 1013.72 1013.87 1014.00 1014.10 1014.15 1014.16 1014.14 1014.11 1014.08 1014.07 1014.07 1014.06 1014.04 1013.97 1013.87 1013.70 1013.50 1013.28 1013.07 1012.91 1012.83 1012.85 1012.99 1013.24 1013.58
1011.89 1012.12 1012.36 1012.62 1012.90 1013.20 1013.50 1013.74 1013.91 1013.98 1013.95 1013.83 1013.66 1013.49 1013.36 1013.30 1013.32 1013.41 1013.56 1013.74 1013.90 1014.01 1014.08 1014.08 1014.05 1013.99 1013.94 1013.92 1013.93 1013.96 1014.00 1014.03 1014.02 1013.95 1013.82 1013.64 1013.43 1013.23 1013.07 1012.99 1013.01 1013.14 1013.37
1011.48 1011.69 1011.91 1012.17 1012.48 1012.83 1013.20 1013.52 1013.77 1013.91 1013.93 1013.83 1013.67 1013.47 1013.30 1013.20 1013.18 1013.26 1013.40 1013.58 1013.75 1013.87 1013.94 1013.94 1013.89 1013.81 1013.75 1013.72 1013.75 1013.83 1013.94 1014.07 1014.16 1014.20 1014.16 1014.04 1013.85 1013.63 1013.40 1013.21 1013.10 1013.10 1013.19
Thickness
5801 5800 5793 5792 5792 5792 5792 5792 5791 5791 5791 5790 5789 5789 5788 5787 5786 5785 5784 5783 5782 5781 5780 5779 5778 5777 5776 5775 5774 5773 5773 5772 5771 5769 5769 5768 5767 5766 5765 5764 5764 5764 5761
5805 5801 5794 5793 5792 5792 5792 5791 5791 5790 5790 5789 5788 5787 5787 5786 5785 5784 5783 5782 5781 5780 5779 5778 5777 5776 5776 5775 5773 5772 5771 5770 5769 5768 5768 5767 5765 5764 5764 5763 5763 5764 5760
5806 5801 5796 5793 5792 5791 5791 5790 5790 5790 5789 5788 5787 5786 5785 5785 5784 5783 5782 5781 5780 5779 5778 5777 5776 5776 5775 5774 5772 5771 5770 5769 5769 5768 5768 5769 5766 5763 5763 5762 5761 5760 5759
5806 5802 5798 5792 5791 5791 5790 5790 5789 5789 5788 5787 5786 5785 5784 5783 5782 5782 5781 5780 5779 5778 5777 5777 5776 5775 5774 5773 5771 5770 5769 5769 5768 5768 5770 5771 5768 5764 5762 5761 5760 5759 5758
5806 5803 5797 5792 5791 5790 5789 5789 5788 5787 5786 5786 5785 5784 5783 5782 5781 5780 5780 5779 5778 5777 5777 5776 5775 5774 5773 5772 5771 5770 5769 5768 5768 5769 5772 5771 5768 5764 5762 5760 5759 5758 5757
5806 5803 5797 5792 5790 5789 5788 5787 5787 5786 5785 5784 5784 5783 5782 5781 5780 5779 5778 5777 5777 5776 5776 5775 5774 5773 5772 5771 5770 5769 5768 5768 5768 5772 5771 5770 5769 5763 5761 5760 5759 5758 5757
5806 5804 5798 5792 5790 5788 5787 5787 5786 5786 5785 5783 5782 5781 5781 5780 5779 5778 5777 5776 5776 5775 5774 5774 5773 5771 5770 5769 5768 5768 5767 5768 5771 5772 5771 5770 5767 5763 5761 5760 5758 5758 5756
5806 5804 5799 5792 5790 5788 5787 5786 5785 5784 5783 5782 5781 5780 5780 5779 5778 5777 5776 5775 5774 5774 5773 5772 5772 5771 5770 5769 5768 5767 5767 5767 5770 5773 5771 5770 5766 5763 5761 5759 5758 5757 5756
5806 5804 5801 5797 5792 5789 5787 5785 5784 5784 5782 5781 5780 5779 5779 5778 5778 5777 5776 5775 5774 5773 5772 5771 5770 5770 5769 5768 5767 5767 5766 5767 5771 5773 5772 5770 5765 5762 5761 5759 5758 5757 5756
5805 5804 5801 5800 5796 5794 5790 5786 5784 5783 5782 5781 5781 5780 5779 5779 5778 5777 5776 5774 5773 5772 5771 5771 5770 5769 5768 5768 5767 5767 5767 5768 5772 5773 5771 5769 5765 5762 5760 5759 5758 5757 5756
5802 5803 5803 5801 5798 5796 5794 5789 5786 5784 5782 5782 5781 5780 5780 5782 5781 5779 5777 5774 5773 5772 5772 5771 5770 5770 5769 5768 5768 5768 5768 5771 5773 5773 5771 5767 5764 5762 5760 5759 5757 5756 5756
5801 5802 5802 5801 5800 5797 5795 5792 5789 5788 5785 5784 5783 5782 5782 5781 5781 5780 5776 5775 5774 5773 5773 5772 5771 5771 5771 5772 5770 5769 5771 5772 5774 5773 5770 5766 5764 5762 5760 5759 5758 5756 5755
5804 5803 5803 5802 5800 5798 5796 5794 5792 5790 5787 5786 5783 5782 5781 5781 5781 5780 5779 5777 5776 5775 5775 5773 5773 5774 5774 5773 5773 5773 5772 5774 5774 5773 5770 5765 5763 5761 5760 5759 5758 5756 5755
5806 5804 5804 5802 5799 5797 5796 5795 5792 5791 5789 5787 5783 5782 5781 5781 5780 5780 5779 5779 5778 5777 5775 5775 5774 5774 5773 5773 5773 5773 5772 5772 5772 5771 5768 5764 5762 5760 5759 5758 5757 5756 5755
5806 5805 5804 5802 5798 5795 5793 5793 5793 5791 5791 5788 5784 5782 5781 5782 5781 5780 5779 5778 5779 5777 5776 5775 5774 5774 5773 5773 5772 5772 5771 5770 5770 5770 5766 5762 5761 5759 5758 5757 5756 5755 5755
5806 5805 5805 5801 5799 5796 5794 5793 5793 5792 5789 5789 5786 5783 5781 5781 5780 5779 5778 5778 5778 5777 5776 5775 5774 5773 5772 5772 5771 5770 5770 5769 5767 5766 5765 5762 5759 5758 5757 5756 5755 5755 5754
5807 5806 5804 5802 5800 5796 5795 5794 5794 5792 5791 5789 5786 5782 5781 5780 5779 5778 5779 5777 5776 5776 5774 5774 5773 5772 5771 5770 5769 5769 5768 5767 5766 5764 5763 5763 5760 5757 5755 5754 5753 5752 5752
5809 5806 5804 5804 5801 5797 5794 5793 5793 5791 5790 5788 5786 5783 5780 5778 5777 5777 5777 5776 5774 5774 5773 5772 5771 5770 5769 5768 5767 5767 5767 5765 5764 5762 5761 5760 5759 5758 5754 5752 5751 5750 5750
5810 5807 5804 5803 5800 5798 5795 5792 5791 5789 5788 5786 5785 5783 5780 5778 5777 5777 5775 5773 5773 5772 5771 5771 5769 5767 5766 5765 5765 5764 5765 5763 5762 5761 5760 5758 5757 5756 5754 5751 5749 5748 5748
5812 5808 5805 5803 5800 5798 5795 5792 5790 5788 5787 5785 5784 5780 5778 5778 5776 5776 5775 5772 5772 5770 5768 5767 5764 5763 5763 5763 5764 5763 5762 5762 5761 5759 5759 5757 5755 5754 5752 5751 5749 5747 5746
5812 5808 5805 5802 5800 5798 5795 5792 5789 5786 5786 5784 5783 5780 5778 5776 5775 5774 5774 5770 5769 5768 5765 5765 5763 5761 5760 5761 5759 5758 5758 5759 5758 5757 5756 5755 5753 5751 5750 5749 5748 5747 5746
5813 5810 5807 5804 5802 5799 5796 5793 5790 5788 5786 5784 5782 5778 5777 5775 5773 5774 5770 5770 5768 5765 5762 5761 5759 5759 5758 5758 5755 5752 5749 5750 5751 5755 5752 5751 5750 5749 5748 5747 5746 5744 5744
5815 5812 5810 5806 5803 5800 5797 5794 5790 5786 5784 5782 5779 5777 5775 5773 5771 5769 5768 5767 5765 5765 5761 5758 5757 5755 5753 5755 5754 5751 5746 5743 5745 5748 5747 5747 5746 5745 5746 5745 5743 5742 5741
5818 5816 5811 5806 5803 5799 5796 5793 5788 5783 5780 5779 5777 5775 5772 5770 5769 5767 5765 5763 5762 5762 5758 5757 5756 5754 5751 5750 5751 5749 5747 5745 5739 5738 5741 5743 5742 5741 5741 5741 5741 5739 5738
5821 5817 5812 5806 5802 5799 5796 5793 5787 5784 5781 5779 5776 5771 5769 5768 5766 5764 5762 5760 5757 5757 5754 5752 5751 5750 5749 5747 5746 5745 5743 5741 5740 5735 5732 5734 5737 5738 5737 5737 5737 5737 5735
5821 5817 5813 5806 5801 5798 5795 5792 5787 5783 5779 5775 5771 5768 5766 5765 5763 5761 5759 5756 5754 5752 5750 5748 5746 5745 5744 5742 5742 5742 5739 5736 5735 5733 5730 5728 5729 5732 5732 5732 5733 5733 5732